EW3608 Weather Reports


time (UTC)temp
F
wind
direction
speed
knots
gust
knots
rain 1hr
in
rain 24hr
in
rain mn
in
humidity
%
barometer
mb
20260906225008 85 333 0.0 1.7 0.00 0.00 0.00 37 1015.7
20260906224518 85 292 0.0 3.5 0.00 0.00 0.00 36 1015.7
20260906224013 86 319 0.0 3.5 0.00 0.00 0.00 36 1015.5
20260906223514 86 277 0.9 4.3 0.00 0.00 0.00 36 1015.7
20260906223004 86 333 0.0 4.3 0.00 0.00 0.00 35 1015.7
20260906222503 87 287 1.7 3.5 0.00 0.00 0.00 35 1015.7
20260906222003 87 350 0.0 3.5 0.00 0.00 0.00 33 1015.7
20260906221512 88 311 0.0 3.5 0.00 0.00 0.00 33 1015.7
20260906221008 89 294 0.9 4.3 0.00 0.00 0.00 33 1015.7
20260906220511 88 263 0.0 4.3 0.00 0.00 0.00 33 1015.8
20260906220028 88 346 0.0 1.7 0.00 0.00 0.00 34 1015.9
20260906215514 89 360 0.0 3.5 0.00 0.00 0.00 33 1016.0
20260906215003 89 333 0.9 3.5 0.00 0.00 0.00 33 1016.0
20260906214505 89 250 0.9 3.5 0.00 0.00 0.00 33 1016.0
20260906214003 89 11 0.9 5.2 0.00 0.00 0.00 33 1016.1
20260906213511 88 280 0.9 5.2 0.00 0.00 0.00 34 1016.3
20260906213016 88 335 0.9 4.3 0.00 0.00 0.00 34 1016.3
20260906212510 88 329 0.9 5.2 0.00 0.00 0.00 34 1016.5
20260906212014 87 288 0.9 5.2 0.00 0.00 0.00 34 1016.5
20260906211540 86 304 1.7 7.0 0.00 0.00 0.00 34 1016.7
20260906211003 85 345 2.6 7.0 0.00 0.00 0.00 34 1016.8
20260906210503 85 350 2.6 4.3 0.00 0.00 0.00 35 1016.9
20260906210014 85 360 0.0 4.3 0.00 0.00 0.00 34 1017.1
20260906205508 85 338 0.9 4.3 0.00 0.00 0.00 34 1017.1
20260906205011 85 300 0.0 4.3 0.00 0.00 0.00 33 1017.1
20260906204523 86 35 2.6 4.3 0.00 0.00 0.00 33 1017.1
20260906204019 85 276 0.9 3.5 0.00 0.00 0.00 35 1017.1
20260906203515 85 33 0.9 3.5 0.00 0.00 0.00 35 1017.2
20260906203004 85 321 0.9 3.5 0.00 0.00 0.00 35 1017.3
20260906202506 85 13 0.9 5.2 0.00 0.00 0.00 36 1017.3
20260906202011 86 18 1.7 5.2 0.00 0.00 0.00 33 1017.3
20260906201534 86 308 1.7 3.5 0.00 0.00 0.00 34 1017.4
20260906201011 87 261 1.7 3.5 0.00 0.00 0.00 32 1017.3
20260906200513 87 59 0.9 5.2 0.00 0.00 0.00 34 1017.4
20260906200027 86 351 2.6 5.2 0.00 0.00 0.00 31 1017.4
20260906195515 86 352 1.7 4.3 0.00 0.00 0.00 34 1017.5
20260906195005 86 50 1.7 7.8 0.00 0.00 0.00 32 1017.7
20260906194507 85 57 2.6 7.8 0.00 0.00 0.00 31 1017.6
20260906194006 86 56 1.7 6.1 0.00 0.00 0.00 34 1017.6
20260906193510 85 78 1.7 6.1 0.00 0.00 0.00 34 1017.7
20260906193023 85 26 0.9 6.1 0.00 0.00 0.00 34 1017.8
20260906192511 85 50 1.7 4.3 0.00 0.00 0.00 38 1017.8
20260906192015 84 31 0.9 4.3 0.00 0.00 0.00 38 1017.9
20260906191531 84 19 0.9 4.3 0.00 0.00 0.00 39 1017.9
20260906191006 84 34 1.7 7.0 0.00 0.00 0.00 38 1018.0
20260906190505 83 85 1.7 7.8 0.00 0.00 0.00 39 1018.1
20260906190013 83 19 0.9 7.8 0.00 0.00 0.00 41 1018.1
20260906185513 83 73 3.5 7.8 0.00 0.00 0.00 42 1018.3
20260906185017 83 22 2.6 6.1 0.00 0.00 0.00 42 1018.4
20260906184527 83 58 1.7 4.3 0.00 0.00 0.00 41 1018.6
20260906184019 82 51 0.9 4.3 0.00 0.00 0.00 42 1018.7
20260906183516 82 32 1.7 4.3 0.00 0.00 0.00 43 1018.9
20260906183036 82 82 1.7 3.5 0.00 0.00 0.00 45 1019.0
20260906182517 82 30 1.7 3.5 0.00 0.00 0.00 44 1019.2
20260906182018 81 71 1.7 5.2 0.00 0.00 0.00 45 1019.2
20260906181519 82 26 1.7 5.2 0.00 0.00 0.00 44 1019.2
20260906181015 82 73 1.7 4.3 0.00 0.00 0.00 45 1019.3
20260906180516 81 26 0.9 3.5 0.00 0.00 0.00 45 1019.3
20260906180047 81 86 0.9 3.5 0.00 0.00 0.00 45 1019.4
20260906175517 80 185 0.9 3.5 0.00 0.00 0.00 44 1019.5
20260906175019 80 24 0.9 3.5 0.00 0.00 0.00 46 1019.6
20260906174548 80 144 0.0 2.6 0.00 0.00 0.00 45 1019.8
20260906174018 80 195 0.9 2.6 0.00 0.00 0.00 45 1019.9
20260906173514 79 74 0.9 3.5 0.00 0.00 0.00 46 1020.0
20260906173023 79 159 0.0 3.5 0.00 0.00 0.00 47 1020.2
20260906172513 79 67 0.0 3.5 0.00 0.00 0.00 46 1020.2
20260906172017 79 63 0.9 2.6 0.00 0.00 0.00 46 1020.3
20260906171533 79 352 0.9 1.7 0.00 0.00 0.00 46 1020.5
20260906171016 78 360 0.9 2.6 0.00 0.00 0.00 49 1020.5
20260906170517 77 31 0.9 2.6 0.00 0.00 0.00 47 1020.5
20260906170018 77 52 0.9 2.6 0.00 0.00 0.00 47 1020.5
20260906165512 77 45 0.9 2.6 0.00 0.00 0.00 47 1020.6
20260906165014 77 76 1.7 2.6 0.00 0.00 0.00 51 1020.7
20260906164528 76 56 0.0 1.7 0.00 0.00 0.00 54 1020.7
20260906164016 76 145 0.9 2.6 0.00 0.00 0.00 55 1020.7
20260906163517 75 150 0.0 2.6 0.00 0.00 0.00 59 1020.6
20260906163034 74 98 0.9 2.6 0.00 0.00 0.00 59 1020.7
20260906162518 74 60 0.0 2.6 0.00 0.00 0.00 60 1020.7
20260906162009 73 339 1.7 2.6 0.00 0.00 0.00 61 1020.6
20260906161525 73 63 0.9 2.6 0.00 0.00 0.00 62 1020.6
20260906161015 73 62 0.0 3.5 0.00 0.00 0.00 63 1020.6
20260906160516 72 12 0.0 3.5 0.00 0.00 0.00 63 1020.6
20260906160035 73 69 1.7 2.6 0.00 0.00 0.00 62 1020.6
20260906155519 72 31 0.9 3.5 0.00 0.00 0.00 64 1020.6
20260906155017 72 102 0.9 3.5 0.00 0.00 0.00 65 1020.5
20260906154535 71 30 0.0 2.6 0.00 0.00 0.00 66 1020.5
20260906154010 71 73 0.9 2.6 0.00 0.00 0.00 66 1020.5
20260906153514 70 55 0.0 1.7 0.00 0.00 0.00 69 1020.5
20260906153035 70 116 0.9 2.6 0.00 0.00 0.00 69 1020.5
20260906152504 70 19 1.7 2.6 0.00 0.00 0.00 70 1020.6
20260906152003 69 103 0.9 2.6 0.00 0.00 0.00 71 1020.6
20260906151510 69 59 0.0 2.6 0.00 0.00 0.00 72 1020.6
20260906151009 68 29 0.9 1.7 0.00 0.00 0.00 72 1020.7
20260906150510 67 49 0.9 1.7 0.00 0.00 0.00 73 1020.7
20260906150024 67 47 0.0 1.7 0.00 0.00 0.00 75 1020.7
20260906145511 66 43 0.9 1.7 0.00 0.00 0.00 75 1020.8
20260906145014 66 90 0.0 1.7 0.00 0.00 0.00 76 1020.8
20260906144504 66 90 0.0 1.7 0.00 0.00 0.00 76 1020.6
20260906144004 66 90 0.0 1.7 0.00 0.00 0.00 77 1020.7
20260906143508 66 86 0.0 1.7 0.00 0.00 0.00 77 1020.8
20260906143018 65 28 0.0 1.7 0.00 0.00 0.00 76 1020.8
20260906142511 65 13 0.0 1.7 0.00 0.00 0.00 77 1020.8
20260906142012 65 17 0.9 1.7 0.00 0.00 0.00 77 1020.8
20260906141525 64 254 0.0 2.6 0.00 0.00 0.00 78 1020.6
20260906141015 63 76 0.9 2.6 0.00 0.00 0.00 78 1020.6
20260906140505 63 63 0.0 1.7 0.00 0.00 0.00 77 1020.7
20260906140006 62 46 0.0 1.7 0.00 0.00 0.00 77 1020.6
20260906135508 62 300 0.0 1.7 0.00 0.00 0.00 76 1020.5
20260906135007 61 300 0.0 1.7 0.00 0.00 0.00 77 1020.5
20260906134522 60 299 0.0 0.9 0.00 0.00 0.00 76 1020.5
20260906134011 60 299 0.0 0.9 0.00 0.00 0.00 77 1020.5
20260906133512 59 226 0.0 0.9 0.00 0.00 0.00 78 1020.6
20260906133030 59 225 0.0 0.0 0.00 0.00 0.00 79 1020.6
20260906132504 59 225 0.0 1.7 0.00 0.00 0.00 80 1020.6
20260906132008 59 225 0.0 1.7 0.00 0.00 0.00 80 1020.6
20260906131517 58 225 0.0 0.9 0.00 0.00 0.00 80 1020.6
20260906131007 58 225 0.0 0.0 0.00 0.00 0.00 80 1020.6
20260906130511 58 225 0.0 0.0 0.00 0.00 0.00 80 1020.6
20260906130026 58 225 0.0 0.9 0.00 0.00 0.00 79 1020.6
20260906125518 59 225 0.0 1.7 0.00 0.00 0.00 79 1020.5
20260906125025 58 225 0.0 1.7 0.00 0.00 0.00 80 1020.5
20260906124506 59 215 0.0 0.9 0.00 0.00 0.00 79 1020.5
20260906124007 59 215 0.0 1.7 0.00 0.00 0.00 79 1020.4
20260906123506 59 215 0.0 1.7 0.00 0.00 0.00 78 1020.3
20260906123032 59 215 0.0 0.0 0.00 0.00 0.00 78 1020.2
20260906122510 59 215 0.0 0.9 0.00 0.00 0.00 78 1020.2
20260906122002 59 215 0.0 1.7 0.00 0.00 0.00 77 1020.3
20260906121504 59 215 0.0 1.7 0.00 0.00 0.00 77 1020.4
20260906121002 59 256 0.0 1.7 0.00 0.00 0.00 77 1020.3
20260906120504 59 256 0.0 1.7 0.00 0.00 0.00 77 1020.2
20260906120008 59 256 0.0 1.7 0.00 0.00 0.00 76 1020.3
20260906115514 60 256 0.0 1.7 0.00 0.00 0.00 76 1020.1
20260906115012 60 286 0.0 1.7 0.00 0.00 0.00 76 1020.2
20260906114525 60 298 0.0 1.7 0.00 0.00 0.00 77 1020.2
20260906114003 60 298 0.0 1.7 0.00 0.00 0.00 76 1020.3
20260906113503 60 298 0.0 1.7 0.00 0.00 0.00 76 1020.2
20260906113007 60 296 0.0 1.7 0.00 0.00 0.00 75 1020.1
20260906112502 60 296 0.0 0.0 0.00 0.00 0.00 74 1020.1
20260906112008 60 296 0.0 0.0 0.00 0.00 0.00 74 1020.0
20260906111518 60 296 0.0 1.7 0.00 0.00 0.00 74 1019.9
20260906111010 60 296 0.0 1.7 0.00 0.00 0.00 74 1019.8
20260906110515 60 296 0.0 1.7 0.00 0.00 0.00 74 1019.8
20260906110004 60 289 0.0 1.7 0.00 0.00 0.00 74 1020.0
20260906105504 60 226 0.0 1.7 0.00 0.00 0.00 74 1020.0
20260906105004 60 226 0.0 1.7 0.00 0.00 0.00 73 1020.1
20260906104512 60 227 0.0 1.7 0.00 0.00 0.00 72 1020.1
20260906104006 60 192 0.0 0.0 0.00 0.00 0.00 72 1020.1
20260906103507 60 192 0.0 0.0 0.00 0.00 0.00 71 1020.0
20260906103019 60 192 0.0 0.0 0.00 0.00 0.00 71 1020.0
20260906102513 60 192 0.0 0.9 0.00 0.00 0.00 70 1019.9
20260906102016 61 192 0.0 1.7 0.00 0.00 0.00 69 1020.1
20260906101516 61 192 0.0 1.7 0.00 0.00 0.00 69 1020.2
20260906101005 61 192 0.0 1.7 0.00 0.00 0.00 69 1020.1
20260906100511 61 192 0.0 1.7 0.00 0.00 0.00 68 1020.3
20260906100017 61 190 0.0 1.7 0.00 0.00 0.00 67 1020.2
20260906095511 61 200 0.0 1.7 0.00 0.00 0.00 67 1020.1
20260906095011 62 198 0.0 1.7 0.00 0.00 0.00 67 1020.2
20260906094523 62 198 0.0 1.7 0.00 0.00 0.00 66 1020.1
20260906094014 62 198 0.0 1.7 0.00 0.00 0.00 65 1020.0
20260906093506 62 198 0.0 0.0 0.00 0.00 0.00 64 1020.0
20260906093017 62 198 0.0 0.0 0.00 0.00 0.00 64 1020.0
20260906092508 63 198 0.0 1.7 0.00 0.00 0.00 63 1019.9
20260906092013 63 198 0.0 1.7 0.00 0.00 0.00 62 1019.9
20260906091518 63 199 0.0 1.7 0.00 0.00 0.00 62 1019.8
20260906091013 63 175 0.0 1.7 0.00 0.00 0.00 62 1019.8
20260906090513 64 175 0.0 1.7 0.00 0.00 0.00 62 1019.8
20260906090051 64 42 0.0 1.7 0.00 0.00 0.00 61 1019.6
20260906085503 64 42 0.0 1.7 0.00 0.00 0.00 61 1019.5
20260906085004 64 42 0.0 1.7 0.00 0.00 0.00 61 1019.6
20260906084512 64 42 0.0 1.7 0.00 0.00 0.00 61 1019.4
20260906084010 64 42 0.0 1.7 0.00 0.00 0.00 61 1019.5
20260906083512 64 42 0.0 1.7 0.00 0.00 0.00 61 1019.3
20260906083029 64 5 0.0 1.7 0.00 0.00 0.00 62 1019.3
20260906082516 64 50 0.0 1.7 0.00 0.00 0.00 62 1019.3
20260906082019 64 51 0.0 1.7 0.00 0.00 0.00 61 1019.2
20260906081503 65 51 0.0 1.7 0.00 0.00 0.00 61 1019.2
20260906081007 65 59 0.9 1.7 0.00 0.00 0.00 59 1019.2
20260906080508 65 263 0.0 1.7 0.00 0.00 0.00 58 1019.2
20260906080019 65 263 0.0 1.7 0.00 0.00 0.00 58 1019.3
20260906075512 66 263 0.0 1.7 0.00 0.00 0.00 57 1019.4
20260906075015 66 263 0.0 1.7 0.00 0.00 0.00 57 1019.4
20260906074528 66 263 0.0 1.7 0.00 0.00 0.00 56 1019.4
20260906074015 66 263 0.0 1.7 0.00 0.00 0.00 56 1019.3
20260906073504 67 263 0.0 0.9 0.00 0.00 0.00 55 1019.4
20260906073007 67 263 0.0 0.9 0.00 0.00 0.00 55 1019.4
20260906072506 67 263 0.0 0.0 0.00 0.00 0.00 53 1019.5
20260906072014 68 263 0.0 1.7 0.00 0.00 0.00 53 1019.4
20260906071523 68 263 0.0 1.7 0.00 0.00 0.00 53 1019.4
20260906071011 68 278 0.0 1.7 0.00 0.00 0.00 53 1019.4
20260906070518 69 290 0.0 1.7 0.00 0.00 0.00 52 1019.4
20260906070036 69 26 0.0 1.7 0.00 0.00 0.00 51 1019.3
20260906065507 70 26 0.0 1.7 0.00 0.00 0.00 51 1019.3
20260906065008 70 25 0.0 1.7 0.00 0.00 0.00 51 1019.3
20260906064515 71 63 0.0 1.7 0.00 0.00 0.00 49 1019.3
20260906064010 71 55 0.0 1.7 0.00 0.00 0.00 49 1019.4
20260906063513 71 140 0.0 1.7 0.00 0.00 0.00 47 1019.4
20260906063041 72 203 0.0 1.7 0.00 0.00 0.00 46 1019.4
20260906062515 73 203 0.0 1.7 0.00 0.00 0.00 44 1019.4
20260906062017 73 203 0.0 1.7 0.00 0.00 0.00 43 1019.4
20260906061510 73 203 0.0 0.9 0.00 0.00 0.00 42 1019.5
20260906061007 74 203 0.0 0.9 0.00 0.00 0.00 42 1019.4
20260906060509 74 203 0.0 1.7 0.00 0.00 0.00 42 1019.3
20260906060020 74 203 0.0 2.6 0.00 0.00 0.00 41 1019.2
20260906055519 74 344 0.9 2.6 0.00 0.00 0.00 41 1019.1
20260906055015 74 360 0.0 1.7 0.00 0.00 0.00 40 1019.2
20260906054533 74 18 0.0 1.7 0.00 0.00 0.00 40 1019.4
20260906054017 74 18 0.0 1.7 0.00 0.00 0.00 40 1019.6
20260906053506 74 167 0.0 1.7 0.00 0.00 0.00 40 1019.8
20260906053010 74 156 0.9 1.7 0.00 0.00 0.00 40 1019.9
20260906052508 74 165 0.0 1.7 0.00 0.00 0.00 40 1020.0
20260906052016 74 171 0.0 2.6 0.00 0.00 0.00 41 1020.1
20260906051540 74 178 0.0 2.6 0.00 0.00 0.00 41 1020.1
20260906051016 73 134 0.0 1.7 0.00 0.00 0.00 42 1019.9
20260906050517 73 120 0.9 1.7 0.00 0.00 0.00 44 1019.8
20260906050008 73 168 0.0 1.7 0.00 0.00 0.00 44 1019.7
20260906045507 73 175 0.0 1.7 0.00 0.00 0.00 43 1019.4
20260906045012 74 101 0.0 1.7 0.00 0.00 0.00 42 1019.3
20260906044516 74 105 0.0 1.7 0.00 0.00 0.00 42 1019.2
20260906044016 74 106 0.0 1.7 0.00 0.00 0.00 43 1019.1
20260906043515 74 183 0.0 1.7 0.00 0.00 0.00 42 1019.1
20260906043029 75 184 0.0 1.7 0.00 0.00 0.00 42 1019.1
20260906042517 75 128 0.0 2.6 0.00 0.00 0.00 42 1018.9
20260906042004 75 80 0.0 2.6 0.00 0.00 0.00 41 1018.8
20260906041511 75 63 0.9 1.7 0.00 0.00 0.00 39 1018.8
20260906041011 75 248 0.0 1.7 0.00 0.00 0.00 38 1018.7
20260906040511 75 248 0.0 2.6 0.00 0.00 0.00 38 1018.6
20260906040033 75 245 0.0 4.3 0.00 0.00 0.00 38 1018.6
20260906035512 75 248 0.9 4.3 0.00 0.00 0.00 38 1018.5
20260906035016 75 220 0.0 1.7 0.00 0.00 0.00 39 1018.5
20260906034537 75 96 0.0 1.7 0.00 0.00 0.00 40 1018.4
20260906034008 76 58 0.9 1.7 0.00 0.00 0.00 40 1018.3
20260906033508 76 227 0.9 3.5 0.00 0.00 0.00 39 1018.2
20260906033015 77 36 0.0 3.5 0.00 0.00 0.00 39 1018.1
20260906032512 77 63 1.7 3.5 0.00 0.00 0.00 38 1018.1
20260906032014 78 63 0.9 1.7 0.00 0.00 0.00 35 1018.0
20260906031537 78 232 0.0 1.7 0.00 0.00 0.00 34 1017.9
20260906031015 79 232 0.0 1.7 0.00 0.00 0.00 33 1017.9
20260906030520 79 229 0.0 1.7 0.00 0.00 0.00 33 1017.7
20260906030007 80 229 0.0 4.3 0.00 0.00 0.00 33 1017.7
20260906025511 80 294 0.0 4.3 0.00 0.00 0.00 33 1017.6
20260906025010 80 322 0.0 3.5 0.00 0.00 0.00 32 1017.5
20260906024524 80 266 0.0 3.5 0.00 0.00 0.00 32 1017.4
20260906024014 80 346 0.9 3.5 0.00 0.00 0.00 32 1017.4
20260906023516 80 280 0.9 3.5 0.00 0.00 0.00 32 1017.3
20260906023031 81 348 0.0 2.6 0.00 0.00 0.00 32 1017.3
20260906022518 81 315 0.9 2.6 0.00 0.00 0.00 31 1017.2
20260906022007 82 350 0.0 1.7 0.00 0.00 0.00 31 1017.0
20260906021512 82 350 0.0 1.7 0.00 0.00 0.00 30 1016.9
20260906021011 82 350 0.0 1.7 0.00 0.00 0.00 29 1016.8
20260906020513 83 350 0.9 5.2 0.00 0.00 0.00 29 1016.8
20260906020027 83 257 0.9 4.3 0.00 0.00 0.00 29 1016.9
20260906015516 83 221 0.9 6.1 0.00 0.00 0.00 29 1017.1
20260906015016 82 292 1.7 6.1 0.00 0.00 0.00 29 1017.1
20260906014534 82 338 0.9 5.2 0.00 0.00 0.00 29 1017.1
20260906014009 83 235 0.0 2.6 0.00 0.00 0.00 29 1017.1
20260906013509 83 287 0.9 2.6 0.00 0.00 0.00 29 1017.0
20260906013020 83 240 0.0 3.5 0.00 0.00 0.00 29 1016.8
20260906012513 83 283 0.9 5.2 0.00 0.00 0.00 29 1016.8
20260906012015 83 193 0.9 5.2 0.00 0.00 0.00 28 1016.9
20260906011530 84 268 1.7 5.2 0.00 0.00 0.00 28 1016.9
20260906011020 84 300 0.0 3.5 0.00 0.00 0.00 28 1016.9
20260906010517 84 311 0.9 3.5 0.00 0.00 0.00 28 1017.0
20260906010014 84 237 0.0 3.5 0.00 0.00 0.00 29 1017.0
20260906005510 85 245 0.9 3.5 0.00 0.00 0.00 29 1017.0
20260906005014 85 238 0.0 1.7 0.00 0.00 0.00 29 1017.0
20260906004526 85 310 0.0 2.6 0.00 0.00 0.00 28 1017.1
20260906004017 85 296 0.9 6.1 0.00 0.00 0.00 28 1017.1
20260906003516 86 286 0.9 6.1 0.00 0.00 0.00 28 1017.0
20260906003037 86 257 0.9 7.0 0.00 0.00 0.00 27 1017.1
20260906002518 86 5 0.9 7.0 0.00 0.00 0.00 27 1017.2
20260906002011 87 256 1.7 7.0 0.00 0.00 0.00 26 1017.2
20260906001516 88 284 2.6 7.0 0.00 0.00 0.00 25 1017.1
20260906001014 89 303 0.0 2.6 0.00 0.00 0.00 25 1017.1
20260906000514 89 321 0.9 4.3 0.00 0.00 0.00 24 1016.9
20260906000030 90 5 0.0 4.3 0.00 0.00 0.00 25 1016.9
20260905235516 90 338 1.7 5.2 0.00 0.00 0.00 22 1016.9
20260905235021 90 275 1.7 5.2 0.00 0.00 0.00 22 1017.1
20260905234535 89 5 0.9 1.7 0.00 0.00 0.00 23 1017.1
20260905234011 89 347 0.0 3.5 0.00 0.00 0.00 23 1017.0
20260905233512 89 337 0.9 3.5 0.00 0.00 0.00 23 1017.0
20260905233023 89 351 0.9 2.6 0.00 0.00 0.00 23 1016.8
20260905232515 90 320 0.9 2.6 0.00 0.00 0.00 22 1016.8
20260905232014 90 329 0.0 1.7 0.00 0.00 0.00 23 1016.8
20260905231532 90 13 0.0 1.7 0.00 0.00 0.00 23 1016.8
20260905231018 90 349 0.0 2.6 0.00 0.00 0.00 21 1016.7
20260905230515 90 345 0.9 3.5 0.00 0.00 0.00 22 1016.7
20260905230021 90 346 0.9 3.5 0.00 0.00 0.00 22 1016.6
20260905225511 90 313 0.0 2.6 0.00 0.00 0.00 21 1016.6